Regional Weather Roundup
Issued by NWS

Home | Current Version | Previous Version | Text Only | Print | Product List | Glossary Off
Versions: 1 2 3 4 5 6 7 8 9 10 11 12 13 14 15 16 17 18 19 20 21 22 23 24 25 26 27

000
ASUS45 KSLC 220510
RWRUT

UTAH REGIONAL WEATHER ROUNDUP
NATIONAL WEATHER SERVICE SALT LAKE CITY UT
1100 PM MDT SUN MAY 21 2017

UTZ001>011-023>025-220600-

NORTHERN UTAH

CITY           SKY/WX    TMP DP  RH WIND       PRES   REMARKS
BRIGHAM CITY   CLEAR     55  48  77 SE5       30.23R
HILL AFB       CLEAR     52  45  76 E7        30.24R
LOGAN          CLEAR     55  44  66 SE5       30.23R
OGDEN          CLEAR     53  47  79 SE5       30.23R
SALT LAKE CITY PTCLDY    59  48  67 CALM      30.23R
TOOELE VALLEY  CLEAR     46  45  93 S7        30.24S
WENDOVER       CLEAR     61  44  53 VRB3      30.24R
HEBER CITY     PTCLDY    46  43  87 N6        30.28R
WEST JORDAN    MOCLDY    54  52  94 NW3       30.25S

$$

UTZ011>015-024>027-220600-

CENTRAL/NORTHEAST UTAH

CITY           SKY/WX    TMP DP  RH WIND       PRES   REMARKS
PROVO AIRPORT  PTCLDY    52  45  77 SW5       30.25R
MOAB/CANYONLAN CLEAR     51  45  79 NE5       30.18R
DELTA          CLEAR     54  41  62 NE9       30.23S
PRICE          CLEAR     44  41  89 N3        30.25R
ROOSEVELT      CLOUDY    52  37  58 CALM      30.27R
VERNAL         CLEAR     50  39  66 N8        30.26R

$$

UTZ013>016-019>022-027-220600-

SOUTHERN UTAH

CITY           SKY/WX    TMP DP  RH WIND       PRES   REMARKS
BRYCE CANYON   CLEAR     42  32  67 CALM      30.32R
CEDAR CITY     CLEAR     48  37  65 NE3       30.22R
MILFORD        CLEAR     55  37  50 NW12      30.22R
ST GEORGE      PTCLDY    77  37  23 NE21G26   30.02R
HANKSVILLE     CLEAR     55  41  58 CALM      30.22R
BLANDING       MOCLDY    54  34  47 N10       30.28R

$$

REGIONAL REPORTS     COLORADO/ARIZONA

CITY           SKY/WX    TMP DP  RH WIND       PRES   REMARKS
CRAIG, CO      CLOUDY    46  40  79 N5        30.28R
GRAND JUNCTION CLOUDY    57  40  52 N5        30.21R
RIFLE, CO      CLOUDY    55  39  54 NW7       30.24R
MONTROSE, CO   CLOUDY    52  40  63 SE8       30.25S
CORTEZ, CO     CLOUDY    51  38  60 N3        30.21R
COLORADO CITY    N/A     64  36  34 NE10      30.17R
PAGE, AZ       PTCLDY    67  37  33 CALM      30.12R
GRAND CANYON   PTCLDY    47  31  53 NE7       30.25R
KINGMAN, AZ    PTCLDY    68  23  18 MISG      30.01R
FLAGSTAFF, AZ  CLEAR     49  26  41 CALM      30.25R

$$

REGIONAL REPORTS    NEVADA/IDAHO/WYOMING

CITY           SKY/WX    TMP DP  RH WIND       PRES   REMARKS
LAS VEGAS, NV  PTCLDY    90  21   8 SE3       29.90R
ELY, NY        CLEAR     52  35  52 N10       30.27R
ELKO, NV       CLEAR     57  38  48 NE7       30.24R
POCATELLO, ID  MOCLDY    52  37  56 S8        30.24R
BURLEY, ID     CLEAR     55  48  77 SW5       30.22R
FORT BRIDGER,    N/A     42  42  97 SE10      30.35S
EVANSTON, WY   CLOUDY    44  36  73 SW5       30.32R
ROCK SPRINGS,  CLOUDY    44  35  70 S5        30.31R
KEMMERER, WY     N/A     41  36  81 E7G18     30.34R

$$




USA.gov is the U.S. government's official web portal to all federal, state and local government web resources and services.